CST,Max TemperatureF,Mean TemperatureF,Min TemperatureF,Max Dew PointF,MeanDew PointF,Min DewpointF,Max Humidity, Mean Humidity, Min Humidity, Max Sea Level PressureIn, Mean Sea Level PressureIn, Min Sea Level PressureIn, Max VisibilityMiles, Mean VisibilityMiles, Min VisibilityMiles, Max Wind SpeedMPH, Mean Wind SpeedMPH, Max Gust SpeedMPH,PrecipitationIn, CloudCover, Events, WindDirDegrees
2011-11-1,62,48,33,41,36,32,93,70,42,30.08,30.00,29.90,10,9,4,14,4,20,0.00,1,,155
2011-11-2,50,44,39,45,40,36,93,83,71,30.17,30.07,29.95,10,9,4,14,4,25,0.37,7,Rain,353
2011-11-3,50,41,32,36,32,28,93,77,47,30.25,30.19,30.13,10,10,10,10,6,,0.00,0,,2
2011-11-4,53,40,26,34,29,23,93,75,44,30.36,30.30,30.25,10,10,7,9,1,,0.00,0,,132
2011-11-5,53,40,28,37,33,27,93,72,47,30.23,30.13,29.99,10,9,3,15,5,20,0.00,0,,151
2011-11-6,59,50,41,45,40,34,81,69,59,29.97,29.87,29.81,10,10,10,17,9,30,0.00,3,,174
2011-11-7,59,47,35,32,25,12,81,50,17,30.19,30.13,30.04,10,10,10,20,8,26,0.00,0,,227
2011-11-8,42,40,37,39,36,30,93,84,61,30.20,30.14,30.08,10,9,5,9,3,,0.08,7,Rain,18
2011-11-9,41,37,33,36,34,30,93,91,81,30.03,29.86,29.69,10,6,0,15,10,28,0.33,8,Rain-Snow,356
2011-11-10,37,34,30,32,30,27,93,82,70,29.96,29.90,29.83,10,9,2,15,9,20,0.00,7,Snow,268
2011-11-11,41,34,28,30,27,25,87,77,57,29.95,29.80,29.65,10,10,10,10,5,,0.00,3,,192
2011-11-12,50,38,26,36,31,23,93,77,50,29.68,29.62,29.47,10,8,4,10,2,,0.00,0,,135
2011-11-13,50,46,42,46,41,36,93,85,71,29.44,29.31,29.22,10,9,0,10,5,,0.01,3,Fog-Rain,193
2011-11-14,53,42,32,37,34,30,100,74,51,29.59,29.52,29.48,10,10,7,16,7,23,0.00,2,,198
2011-11-15,55,42,30,34,30,19,87,64,41,29.82,29.68,29.60,10,10,10,23,5,29,0.00,2,Rain,235
2011-11-16,37,34,30,21,18,12,64,53,36,30.04,29.95,29.83,10,10,10,23,12,30,0.00,2,,269
2011-11-17,33,28,23,16,14,12,68,55,44,30.13,30.08,30.03,10,10,10,17,10,23,0.00,2,,256
2011-11-18,46,36,26,27,22,16,80,57,39,30.09,29.84,29.72,10,10,10,21,7,26,0.00,1,,184
2011-11-19,42,38,33,36,30,23,93,71,57,29.79,29.74,29.68,10,8,2,10,3,,0.00,7,Rain-Snow,150
2011-11-20,35,34,32,32,25,21,87,73,64,30.36,30.25,29.94,10,10,10,12,6,21,0.00,8,,7
2011-11-21,37,34,30,28,25,21,93,76,64,30.39,30.33,30.27,10,10,5,7,3,,0.00,6,,166
2011-11-22,44,36,28,34,30,25,93,81,61,30.28,30.12,29.99,10,9,5,9,4,,0.00,4,,35
2011-11-23,42,34,26,36,32,25,100,87,70,30.17,30.12,30.06,10,6,2,13,4,17,0.00,5,,246
2011-11-24,51,44,37,41,38,34,93,82,66,30.09,30.02,29.90,7,6,2,15,9,20,0.00,5,,203
2011-11-25,53,48,42,43,41,37,87,76,67,29.83,29.79,29.76,10,10,10,13,8,18,0.00,3,,194
2011-11-26,53,50,46,50,47,43,100,91,87,29.80,29.75,29.70,10,5,0,10,5,,0.27,8,Rain,184
2011-11-27,41,37,33,36,29,25,87,75,70,30.11,29.97,29.83,10,10,7,18,12,26,0.00,8,Rain,330
2011-11-28,35,32,28,27,25,23,93,74,65,30.17,30.12,30.05,10,10,10,8,3,,0.00,5,,246
2011-11-29,39,34,28,27,22,18,86,65,42,30.17,30.12,30.07,10,10,10,17,7,23,0.00,0,,354
2011-11-30,44,32,21,19,16,10,86,54,25,30.03,30.00,29.96,10,10,10,10,5,,0.00,2,,241